RASSVET-3 1

导读

RASSVET-3 1(NORAD编号68360)是俄罗斯“黎明-3”低轨互联网星座的首批量产卫星之一,由俄罗斯私营航天企业Buro 1440主导开发,于2026年3月23日通过联盟-2火箭发射。该卫星单颗质量约370公斤,初始轨道参数为近地点290公里、远地点324公里,倾角82.3度,后续将转移至目标轨道。它搭载5G NTN非地面网络通信系统、星间激光通信终端与等离子推进系统,用于构建俄罗斯自主可控的低轨卫星互联网,被称作俄罗斯版“星链”,是俄从试验阶段转入规模化组网的标志性卫星。

Basic Information
目录编号:
68360
目录名称:
RASSVET-3 1
国际标识:
2026-061A
轨道中心:
EARTH
卫星名称:
RASSVET-3 1
卫星全名:
RASSVET-3 1
卫星状态:
在轨 (已飞行166 天)
发射日期:
2026-03-23 UTC
国别 :
俄罗斯(独联体) (CIS)
星等 :
--
Orbit Information
数据来源 国际轨道数据
星历时间: 2026-09-05T10:00:40+0800
9小时前
查看轨道信息
半长轴: 6889.064km
偏心率: 0.0002695
轨道倾角: 82.288°
近地点辐角 92.487°
升交点赤经 290.591°
平近点角 267.668°
近地点: 509.07km
远地点: 512.784km
周期: 94.842分钟
每日圈数: 15.183171
Detailed Information
使用方式:
暂无
2D Orbit Map
3D Orbit Map
Orbit Altitude Analysis Chart
Orbit Inclination Analysis Chart
Orbit Comprehensive Analysis Chart
View Comprehensive Chart
Conjunction Data List
Event ID Objects TCA Miss Dist (km) Collision Risk Probability Collision Risk Index (CRI) Action
CDM_260906-003006-774606-836021
OBJECT A (67746)
2026-09-06T
00:30:53+0000
2.345 km
极远距离
1.622791E-6 低风险 0.39